Aérodrome :
LOGIN :

S'inscrire | Disclaimer

   EN    FR    IT 

 










Légende :    VFR   VFR Marginal   IFR   IFR Intensif   IFR Très Intensif
Visi : 
Plafond : 
>= 8 km
>= 3000ft
5 à 8 km
1000 à 3000 ft
1500m à 5 km
500 à 1000 ft
800 à 1500m
200 à 500 ft
< 800m
< 200 ft
Symboles :   Orages  Brouillard  Fortes neiges  Fortes précipitations  Vent > 20 kt
SIGMETs :   Divers  Orages  Givrage  Turbulence  Onde Orograph.  Cendres Volcan.







- Altitude de l'aérodrome : 1046 ft
- Code IATA : NUE


EDDN - Nuremberg

DERNIER METAR :
  • 151750Z 32009KT CAVOK 23/10 Q1015 NOSIG

METARs EXPIRÉS :
  • 151720Z 32009KT 290V350 CAVOK 23/09 Q1015 NOSIG
  • 151650Z 30008KT 270V350 CAVOK 24/10 Q1015 NOSIG
  • 151620Z 31010KT CAVOK 24/09 Q1015 NOSIG
  • 151550Z 30008KT 280V010 CAVOK 24/09 Q1015 NOSIG
  • 151520Z 31008KT 280V350 CAVOK 25/09 Q1015 NOSIG

TAF TAF EDDN
Valide du 15 à 18h jusqu'au 16 à 18h UTC


151700Z 1518/1618 32007KT 9999 SCT040
BECMG 1518/1520 VRB03KT
BECMG 1606/1608 30008KT
Pas de NOTAMs connus pour ce terrain.



MET'MAP, la Météo Aéronautique d'un coup d'oeil ! - Copyright ORBIFLY Décembre 2007 - Disclaimer

ORBIFLY MET'MAP TEAM :

Programmation & Développement : Alexandra Zaïnal
Conception & Développement : Baudouin d'Aumeries
Co-Programmation & Développement : Marc-Olivier Méhu
Soutien technique & logistique : Manuel Goepfert

Contact : metmap@orbifly.com




SOURCES & CREDITS :

   NOAA